Location: Boitzum
(52.1496°N, 9.6943°E)
Time: 23:09:41
(UTC+00:00)

Meteor 2-19 Rocket - Pass Details

Date: 13 January 2026
Orbit: 935 x 959 km, 82.5° (Epoch: 9 February)

Event Time Altitude Azimuth Distance (km) Brightness Sun altitude
Rises 06:15:22 0° 347° (NNW) 3,620 7.1 -10.2°
Reaches altitude 10° 06:17:53 10° 344° (NNW) 2,668 6.4 -9.8°
Maximum altitude 06:23:53 64° 265° (W) 1,032 4.4 -8.9°
Drops below altitude 10° 06:29:50 10° 185° (S) 2,641 7.0 -8.1°
Sets 06:32:19 0° 183° (S) 3,580 7.8 -7.8°
